Theta_e
317 316 315 314 313 313 314 314 312 312 313 314 313 313 313 312 311 311 310 309 309 308 308 307 306 305 303 301 300 300 300 300 300 300 299 300 301 301 300 300 300 299 299 299 298 298 298 298 297 297 296 295 295 295 294 293 293 293 292 292 291 291 291 292 292 291 291 291 291
317 316 314 312 311 313 314 313 312 312 312 313 313 313 313 312 312 311 310 309 309 309 308 308 306 305 303 302 301 300 300 300 300 300 300 300 301 301 301 300 300 300 300 299 299 299 299 298 298 298 297 296 295 294 294 293 293 293 292 291 291 291 292 292 292 292 292 292 291
317 316 315 314 314 314 314 314 313 312 312 312 313 313 312 312 312 311 310 310 309 309 308 307 306 305 303 302 301 301 301 301 300 300 300 300 301 301 300 301 300 300 300 300 300 300 300 299 299 298 297 297 296 295 294 292 292 293 292 292 292 292 292 293 293 293 293 292 292
317 316 316 315 314 314 314 314 313 313 312 312 312 312 312 312 311 311 311 309 308 308 308 308 307 306 304 302 302 301 301 300 300 300 300 301 301 300 300 300 300 300 300 300 300 300 300 299 300 299 298 297 295 295 295 293 292 293 293 293 293 293 293 293 293 293 293 293 292
316 316 316 316 315 314 314 314 314 313 312 312 312 312 312 312 311 311 310 309 309 308 307 307 307 306 305 303 302 301 301 300 299 300 300 301 301 301 300 300 300 300 300 300 300 300 300 299 300 299 298 296 297 296 295 294 293 293 293 293 293 293 294 294 293 292 292 292 291
316 316 316 316 315 314 314 315 313 313 313 313 312 312 311 311 311 311 310 309 309 308 306 304 304 304 304 303 302 301 301 301 300 300 301 300 301 301 300 300 300 300 300 300 300 300 299 300 300 299 297 296 296 295 295 294 294 294 294 293 294 294 294 294 293 292 291 291 291
316 316 316 316 315 315 314 315 314 313 313 312 311 311 311 311 311 310 309 309 309 308 306 303 303 304 304 303 302 301 301 301 301 301 300 301 301 301 300 300 300 300 301 300 300 300 300 300 300 299 297 296 296 295 295 295 295 295 295 294 294 294 294 293 293 292 292 291 291
316 316 316 316 316 316 315 314 314 313 312 312 311 311 310 311 310 310 309 309 309 307 306 305 304 304 304 303 302 302 302 301 301 301 301 301 301 301 301 300 300 300 301 301 300 300 300 301 302 301 299 299 298 297 296 295 296 295 295 295 294 294 293 293 293 293 292 291 291
316 316 316 317 317 316 315 314 314 313 312 312 311 311 310 310 310 310 309 309 308 308 307 306 305 304 304 303 302 302 302 302 302 301 301 301 301 301 301 301 300 301 302 302 302 301 301 302 304 303 301 301 300 298 297 296 296 296 296 295 294 294 293 293 293 293 292 291 291
316 315 316 316 317 316 316 315 314 313 312 312 311 310 310 308 309 309 310 310 309 308 307 307 305 304 303 303 302 302 302 302 302 302 301 301 301 301 302 302 302 302 303 303 302 302 302 302 304 303 301 300 299 298 297 297 297 296 296 296 295 294 293 292 293 293 292 292 292
315 315 315 316 316 316 316 315 314 314 313 312 311 311 309 308 309 309 309 309 309 308 307 307 306 304 304 303 303 302 302 302 302 302 302 302 302 302 303 304 304 303 303 304 304 304 303 303 303 302 301 301 300 299 298 297 297 297 296 296 295 294 293 292 293 293 293 293 292
315 315 315 315 316 317 316 315 315 314 313 312 312 311 310 310 310 309 309 309 308 308 307 307 306 305 304 304 303 303 302 302 302 302 302 302 302 304 305 306 306 305 305 305 305 306 305 304 303 302 301 301 301 300 299 297 297 297 296 295 295 294 294 293 293 293 294 294 293
315 315 315 315 316 317 317 316 316 315 314 313 312 312 311 311 310 309 308 308 308 307 308 307 306 305 304 304 304 303 303 302 302 302 302 303 304 305 306 307 307 306 305 305 306 306 305 304 303 301 300 300 301 301 300 298 297 297 296 295 295 295 295 294 294 294 294 293 293
315 315 314 314 315 316 317 317 317 316 315 314 313 313 312 312 310 309 308 308 308 308 307 307 305 305 305 304 304 303 303 303 303 303 303 304 305 306 307 308 307 307 307 306 306 305 305 304 302 301 301 300 300 300 300 298 298 297 296 295 295 295 295 295 294 294 293 293 292
315 315 314 314 315 316 317 318 317 317 316 315 314 314 313 313 311 309 309 309 308 308 308 307 306 305 304 304 304 303 303 302 303 304 304 304 306 306 307 308 308 308 308 306 305 305 304 303 302 301 300 300 300 300 300 299 298 297 297 296 295 295 295 295 295 294 294 293 293
315 315 315 315 315 316 317 318 318 318 317 316 316 315 314 313 313 311 309 309 309 308 308 307 306 305 304 303 303 303 303 304 304 305 305 306 307 307 307 308 308 308 307 306 305 304 303 302 302 301 300 300 300 300 300 299 298 298 297 297 296 296 296 295 295 295 294 294 294
316 316 315 315 315 316 317 319 319 319 318 317 316 316 315 315 314 312 310 309 309 308 308 307 306 305 304 302 303 304 305 306 306 306 307 307 307 307 307 307 307 307 307 306 305 304 303 302 302 301 300 299 299 299 299 299 298 298 297 297 296 296 296 295 295 295 295 295 294
317 317 316 316 316 317 317 318 319 319 318 318 317 316 316 315 315 313 311 309 309 309 308 307 306 305 304 303 304 306 306 307 307 307 308 308 308 307 307 307 307 307 306 306 305 303 302 301 301 300 299 299 299 299 298 298 298 298 297 297 296 296 296 295 296 296 296 295 295
317 317 317 316 316 317 318 318 319 319 319 318 318 317 316 315 315 314 313 311 309 309 308 307 307 306 305 305 306 307 307 307 306 307 307 308 308 308 308 307 307 307 307 306 304 303 302 301 301 300 299 298 298 298 298 298 298 298 297 297 296 296 296 296 296 297 297 296 295
317 317 317 317 317 318 318 318 319 319 319 319 318 317 316 315 314 314 313 312 310 309 308 307 308 307 307 307 308 308 308 307 305 305 306 307 308 308 308 307 307 307 307 306 304 302 301 301 300 300 299 298 297 297 297 297 297 297 297 297 297 296 296 297 296 297 297 296 295
318 318 317 317 318 318 318 319 319 319 319 319 318 316 316 315 314 313 313 312 310 309 308 307 307 307 307 308 309 309 308 306 304 305 305 306 307 307 307 307 307 307 306 305 303 302 301 301 300 300 299 298 297 297 297 297 297 297 297 298 297 297 297 297 296 296 296 296 295
318 318 318 318 318 318 319 319 319 319 319 319 318 318 318 316 315 314 313 312 310 308 307 306 307 308 309 310 310 309 307 306 305 305 306 306 307 307 307 307 307 306 305 304 303 302 301 301 300 300 299 298 297 297 297 297 297 297 297 297 297 297 297 297 296 296 296 295 295
319 319 319 319 319 318 318 318 318 319 319 319 320 320 319 318 316 314 313 311 309 308 306 306 308 309 310 311 310 308 307 306 305 305 306 307 307 307 307 307 306 305 304 303 302 302 301 301 301 300 299 298 298 297 297 297 297 297 297 297 297 297 297 296 296 296 295 295 295
319 319 319 319 319 319 318 318 319 320 320 320 321 321 320 320 317 315 312 311 309 308 307 307 309 309 310 311 310 308 307 306 305 306 306 307 308 307 308 308 307 306 304 303 302 302 301 301 301 301 300 299 298 298 298 298 298 298 298 297 297 297 297 296 296 296 295 295 295
320 320 319 319 319 319 319 319 319 320 320 321 321 321 321 320 317 315 312 310 309 308 308 308 309 309 309 309 309 308 307 306 306 306 306 307 307 307 307 307 307 306 305 303 300 299 298 299 301 301 301 300 299 299 299 299 299 298 298 298 297 297 297 296 296 295 295 295 295
320 320 320 320 319 319 319 320 320 320 321 321 321 321 321 320 318 314 312 310 308 308 308 308 308 307 306 308 307 307 306 306 306 306 306 306 306 307 307 307 307 307 306 303 299 297 297 298 299 299 299 301 300 300 299 299 299 299 298 297 297 297 297 296 296 296 296 296 296
320 320 320 320 320 320 320 320 321 321 321 321 321 320 321 320 318 314 311 309 308 308 308 308 307 305 304 307 306 306 306 306 306 306 306 306 306 306 306 307 307 307 306 303 299 298 297 297 297 297 298 301 300 300 300 299 299 298 297 297 297 297 297 297 296 296 296 296 297
320 320 320 321 320 320 320 321 321 321 321 320 320 321 320 319 316 313 311 309 308 308 308 308 306 306 306 307 306 306 306 306 306 306 306 306 306 306 307 307 308 307 305 301 299 298 297 297 296 296 297 298 300 300 300 299 299 298 298 297 297 297 297 297 297 296 296 296 297
319 320 320 320 321 320 320 321 321 321 321 320 321 320 319 317 314 312 310 308 308 308 308 308 306 306 307 307 307 306 306 306 306 306 307 307 307 307 307 307 308 306 303 299 298 297 297 296 296 295 296 297 299 300 300 300 299 298 298 298 298 297 297 297 297 297 297 296 296
319 320 320 320 321 320 321 321 321 321 321 321 320 319 317 315 313 311 309 308 308 308 308 308 307 306 306 307 307 307 306 306 307 307 307 307 307 307 307 307 308 306 303 298 297 297 296 296 295 295 295 296 298 300 300 300 300 299 298 298 298 297 297 297 297 297 297 297 296
319 319 320 320 320 320 320 321 321 321 321 321 319 317 316 314 312 310 309 308 308 308 308 308 307 307 307 307 307 307 307 307 308 309 309 308 307 307 307 308 308 306 302 297 296 296 296 296 295 295 294 294 297 299 301 300 300 299 299 298 298 297 297 297 297 297 296 296 296
319 319 319 319 319 319 319 319 319 319 319 319 318 317 315 313 312 310 309 309 308 308 308 307 307 306 307 307 307 308 308 309 309 310 310 309 308 308 307 307 307 305 301 296 295 295 296 295 295 294 294 293 296 299 300 300 300 299 299 298 298 297 297 297 297 296 296 296 295
319 319 319 318 318 318 317 315 314 314 315 316 315 315 313 312 311 310 309 309 309 309 308 307 307 306 307 307 308 308 309 310 311 310 309 308 309 308 308 307 307 305 300 295 295 295 295 295 294 294 293 293 296 299 300 300 300 299 298 298 298 297 297 297 297 296 296 296 295
319 319 318 318 318 316 314 311 310 310 311 311 311 311 311 311 310 310 309 309 309 309 309 308 308 308 308 308 309 309 310 310 311 310 310 309 309 308 308 307 308 304 299 294 294 294 294 294 294 294 293 293 296 299 300 299 299 298 297 297 297 297 297 297 297 297 296 296 296
318 318 318 317 316 314 312 310 309 309 308 308 308 307 308 309 309 309 309 308 309 310 310 309 309 309 309 310 310 311 310 310 311 310 309 309 308 307 306 306 306 302 297 294 293 293 294 294 293 293 293 293 297 299 300 298 298 297 296 296 296 296 296 297 297 297 297 296 296
318 317 317 316 314 312 311 310 310 309 308 307 306 306 307 308 308 308 308 307 308 310 311 311 311 310 310 311 311 310 310 310 309 308 308 307 306 305 305 304 305 300 295 293 293 293 293 293 293 293 293 295 298 299 299 298 297 296 296 295 295 295 295 296 296 296 296 296 296
317 317 315 314 312 311 311 310 310 309 309 307 307 307 307 308 308 308 308 307 310 311 311 311 311 311 311 312 312 311 310 309 307 306 305 304 304 304 303 303 303 299 294 292 292 293 293 293 293 293 293 295 298 299 298 298 297 296 295 294 294 294 294 294 294 294 295 294 293
316 315 314 313 312 312 311 311 310 310 310 309 308 309 309 310 310 310 309 308 311 312 311 311 312 312 312 312 311 309 307 306 305 304 303 302 302 302 302 301 301 297 294 292 292 292 293 293 293 293 293 296 297 298 297 297 296 295 294 293 293 293 292 292 292 292 292 291 291
315 314 314 313 313 312 312 311 311 311 311 312 311 311 311 312 312 312 311 311 313 312 312 312 312 312 311 309 309 306 303 302 302 302 301 301 301 300 300 300 299 296 293 291 292 292 293 293 293 292 293 295 297 297 297 296 295 294 293 292 292 291 290 289 289 289 289 289 289
314 314 314 314 314 313 313 313 313 313 314 314 314 314 313 313 313 313 313 312 313 313 312 311 311 310 308 304 305 303 300 298 299 299 299 300 299 297 297 298 298 295 293 291 291 292 292 293 293 292 293 295 296 297 297 296 295 294 293 292 292 290 288 287 288 288 287 287 288
315 315 315 315 315 315 314 314 315 315 315 315 315 314 314 313 313 314 314 314 313 313 312 311 309 307 305 302 303 302 299 296 296 296 297 297 297 296 296 296 296 294 292 291 291 291 292 292 292 293 293 295 296 297 297 296 295 294 293 292 291 289 287 286 286 286 286 286 286
Wind_Speed
10 9 8 8 7 7 7 7 6 6 6 7 8 8 8 8 8 8 7 7 7 8 8 8 8 8 8 9 11 12 12 12 12 12 12 12 12 12 11 10 10 9 9 9 9 9 8 8 7 6 5 5 5 5 5 5 6 6 6 6 6 6 7 9 8 9 9 9 7
11 10 9 8 8 7 7 7 7 6 7 7 8 8 8 8 8 8 8 9 8 8 8 7 8 8 9 11 12 13 13 13 13 13 12 13 13 13 12 10 10 11 11 11 11 10 9 9 8 7 5 5 5 5 5 5 6 7 7 7 6 6 6 7 8 9 9 9 7
12 11 10 9 9 9 8 9 8 9 9 8 8 8 8 8 8 8 9 9 9 9 8 7 8 9 11 12 12 12 13 13 14 13 13 13 13 13 12 11 11 11 12 12 11 10 10 10 9 7 6 6 6 6 6 5 6 6 7 8 6 5 5 6 7 7 7 6 7
14 13 12 12 12 12 12 10 11 11 10 9 9 8 8 8 8 8 8 8 9 9 9 9 9 10 11 11 12 12 13 13 14 13 13 12 13 13 12 11 11 12 12 12 12 11 10 10 8 7 6 6 7 7 6 5 6 6 6 6 5 5 5 5 5 5 5 5 6
15 14 13 13 14 14 13 12 12 11 10 9 8 8 8 8 8 8 8 8 9 10 10 11 10 10 10 11 12 13 13 13 13 13 13 12 13 12 11 11 12 12 12 11 11 11 10 10 7 6 6 6 6 6 6 6 7 6 5 4 4 5 5 5 5 5 5 4 5
16 15 15 13 14 14 13 12 13 12 11 10 10 10 10 9 9 9 9 10 11 11 11 10 10 10 10 11 12 12 13 13 13 12 13 13 12 11 11 11 12 11 11 10 11 10 10 9 7 5 5 4 4 4 5 7 7 6 5 5 4 4 5 5 5 5 4 5 5
16 16 16 15 15 14 13 13 13 12 11 10 12 13 13 12 12 12 12 11 10 10 9 9 10 10 11 11 12 12 12 12 12 13 13 13 12 12 12 12 12 11 10 10 9 9 9 8 6 4 4 4 4 4 5 7 7 7 6 6 5 4 5 5 5 5 6 7 8
17 17 17 17 16 16 15 15 14 12 11 10 13 14 15 15 15 14 13 12 11 10 9 9 11 12 12 12 12 12 13 13 13 13 13 12 12 12 12 12 11 11 10 9 8 8 7 7 5 4 4 4 4 4 6 7 8 8 8 7 5 5 5 5 5 6 6 8 9
16 17 17 17 16 16 16 16 15 14 13 13 14 15 15 15 15 15 14 12 12 11 10 10 12 13 13 13 13 13 13 13 14 14 13 12 13 13 12 11 10 9 8 7 7 7 7 6 5 5 5 5 5 5 6 8 9 9 9 7 6 5 5 5 6 7 7 8 9
17 17 17 17 17 16 16 16 16 16 15 15 15 15 15 14 14 14 13 12 11 11 11 12 13 13 13 14 13 13 13 13 13 14 14 13 13 13 12 10 9 7 6 6 6 7 7 6 6 6 6 5 6 6 6 8 9 9 8 6 6 6 6 5 6 7 8 8 9
18 18 17 16 16 16 15 16 15 15 15 15 15 15 14 14 14 14 13 11 11 12 13 13 13 13 14 14 14 13 12 12 12 13 14 14 13 12 11 9 8 7 6 6 6 7 7 7 8 8 7 5 6 6 6 7 8 9 8 6 6 7 7 6 7 7 7 8 9
18 17 16 16 15 15 15 15 14 15 15 15 15 15 14 14 14 14 13 12 12 13 13 13 13 13 14 13 13 13 12 12 13 13 14 14 12 10 9 7 7 7 7 8 8 7 8 9 9 8 7 7 6 6 6 7 8 9 9 6 6 7 8 8 8 7 7 7 8
18 17 16 15 15 15 14 15 14 14 15 16 16 15 15 14 14 14 13 13 14 13 12 12 12 13 13 13 13 13 12 13 13 12 12 11 9 8 7 7 7 8 8 9 9 9 9 9 9 9 8 8 7 8 8 9 10 10 9 7 7 7 8 9 8 7 7 7 8
18 17 16 16 15 15 14 14 14 14 15 16 16 15 15 14 14 13 13 14 14 13 12 11 11 11 12 13 13 13 12 12 11 10 9 7 6 6 7 7 8 9 10 10 10 10 10 9 9 9 10 10 10 10 10 11 11 10 9 8 8 8 8 8 8 7 7 7 7
18 18 17 16 16 15 14 15 14 14 15 17 16 15 15 14 13 13 13 14 14 13 12 11 11 11 11 12 12 11 10 9 8 7 7 6 6 7 8 9 10 11 12 12 11 11 11 10 10 10 11 12 12 11 11 11 10 10 9 9 9 9 8 8 8 8 8 8 8
18 18 17 17 17 16 16 15 14 14 15 16 16 16 15 14 13 13 13 14 14 13 12 12 11 11 10 10 9 8 7 6 6 6 6 7 8 9 10 11 12 13 13 13 12 11 10 10 10 10 11 12 12 11 11 10 10 10 9 9 9 9 9 9 9 9 9 9 9
18 18 18 18 19 19 18 17 15 15 16 18 18 17 16 15 14 14 14 15 14 13 13 14 12 10 8 7 6 5 5 5 6 7 8 9 10 11 11 13 13 14 14 13 11 10 10 10 9 10 10 11 11 11 11 10 10 10 10 9 10 10 10 10 10 11 11 11 11
20 20 20 20 21 20 20 19 18 18 19 19 18 17 16 15 15 14 14 15 14 15 15 15 12 9 6 5 4 4 5 6 7 8 9 10 11 12 12 13 13 13 12 11 10 10 10 10 10 10 9 9 10 10 10 10 10 10 10 9 10 10 10 10 11 11 12 12 12
22 23 23 23 22 22 21 21 22 21 21 19 17 15 15 15 15 15 14 15 15 15 15 14 11 7 5 4 4 5 6 7 8 9 10 11 11 12 12 12 11 10 10 10 10 10 10 11 11 10 9 9 9 9 10 10 10 10 9 9 9 10 10 11 12 12 12 13 13
23 23 24 24 24 24 24 24 24 22 19 16 14 13 13 14 14 15 15 15 14 14 13 12 10 7 6 5 6 7 7 7 8 9 10 10 10 10 10 9 9 9 9 9 9 10 10 10 10 10 10 9 9 9 10 10 10 10 9 9 9 10 11 12 12 13 13 13 13
22 23 23 24 24 24 24 23 21 19 16 14 12 11 11 12 14 15 16 15 13 12 12 11 10 9 9 8 9 9 8 7 8 8 9 8 8 8 8 7 7 8 8 9 9 9 9 10 10 10 10 9 10 10 11 11 11 11 11 10 11 12 13 13 13 13 13 13 12
22 22 22 23 23 22 21 19 17 15 13 12 11 11 13 15 16 16 16 14 12 11 11 11 11 11 11 11 10 10 8 7 7 8 7 6 6 5 5 5 6 7 7 8 8 9 9 9 10 10 10 11 11 12 12 12 12 12 13 12 12 12 13 13 12 12 12 12 12
23 22 21 20 20 20 19 17 15 13 13 12 13 16 19 21 19 17 14 13 12 11 10 10 11 11 12 11 11 10 9 8 7 7 6 4 3 2 2 3 4 6 7 7 8 8 9 9 10 11 12 12 13 13 13 12 12 12 12 12 12 12 12 12 11 12 12 11 11
21 20 19 17 18 19 18 16 15 14 14 13 16 20 23 23 19 15 13 13 13 12 11 10 10 11 11 10 10 9 9 9 8 7 5 4 3 2 3 4 5 6 7 6 7 9 9 9 11 12 13 13 13 13 12 12 11 11 11 12 12 12 12 11 11 11 11 11 10
19 18 17 17 18 18 17 16 16 16 15 15 17 20 21 19 16 13 13 13 13 12 12 11 11 10 9 9 9 10 10 10 9 8 6 6 5 4 5 6 7 8 8 8 10 12 13 13 13 13 13 12 12 11 11 11 12 12 12 12 13 13 12 12 12 11 11 11 10
17 16 17 18 18 18 18 17 18 17 17 16 17 18 18 16 14 12 12 12 12 12 12 12 11 9 9 9 10 10 10 9 9 9 8 7 6 7 9 10 11 11 11 11 14 16 18 19 17 15 12 11 11 10 10 10 12 12 12 13 13 12 12 12 12 12 12 11 11
16 16 17 18 19 19 19 19 18 18 17 17 17 17 16 15 13 12 12 12 12 11 11 11 9 9 9 9 11 11 11 10 10 10 10 10 11 14 16 16 15 14 13 15 18 20 21 21 20 17 14 11 11 11 10 10 11 12 12 12 12 12 13 13 13 13 12 11 11
15 16 17 17 18 19 20 19 18 18 18 18 17 16 15 14 13 12 12 12 11 10 10 9 8 8 8 8 10 12 13 13 12 12 12 15 18 21 22 19 17 15 15 17 19 20 20 20 19 18 16 13 11 11 11 10 11 11 11 11 11 12 13 14 13 13 12 12 11
16 16 16 17 18 19 19 20 20 20 19 18 16 15 13 13 12 12 12 12 12 11 9 7 7 7 7 9 11 13 14 15 14 14 16 19 22 23 22 19 17 16 16 17 18 19 20 20 20 19 18 16 12 10 9 10 10 10 10 10 11 12 13 13 13 12 12 12 10
16 16 16 17 17 18 18 20 21 21 19 16 14 13 12 11 12 12 13 13 12 11 9 7 8 9 10 12 13 14 14 15 15 16 18 21 22 21 19 18 16 16 15 17 18 19 20 20 20 20 20 20 15 11 9 9 10 10 10 10 11 13 13 14 13 13 12 11 10
15 16 16 17 17 17 18 19 19 19 18 15 13 12 12 12 12 13 13 12 10 9 8 9 10 12 13 13 14 15 15 15 15 16 17 19 19 18 17 17 17 16 15 16 17 19 20 20 20 21 21 21 16 12 10 10 10 10 10 10 12 13 13 13 13 13 12 11 10
15 16 16 16 16 16 16 15 15 15 15 14 13 13 12 12 12 11 11 11 10 9 9 11 13 14 14 14 14 15 15 15 15 15 16 16 17 17 17 17 17 16 14 14 16 18 19 20 21 21 21 21 16 13 11 10 10 10 10 11 12 13 13 12 11 12 12 11 10
15 15 15 15 15 14 11 9 9 10 11 12 12 12 12 12 10 10 11 10 10 11 11 13 14 14 14 14 14 13 14 14 15 15 15 16 16 17 17 16 15 15 14 14 16 18 19 20 20 21 21 21 16 13 12 10 9 9 9 10 11 12 12 12 11 11 11 11 10
15 14 13 13 12 9 6 4 4 5 7 8 9 10 10 10 10 10 10 10 9 10 10 12 13 13 13 13 12 12 12 12 13 14 15 15 15 16 16 15 13 13 13 15 17 19 19 20 20 21 21 20 15 13 12 11 9 8 8 9 9 10 10 11 11 10 10 10 9
14 13 11 10 8 7 6 5 4 4 5 6 6 7 8 9 10 10 9 8 8 9 9 10 10 11 11 11 11 12 13 13 13 14 14 14 14 15 15 15 13 13 14 16 18 19 19 20 20 21 20 18 13 11 11 11 10 9 9 9 9 9 9 9 9 9 9 8 7
13 12 11 9 8 8 8 7 7 7 6 6 5 6 6 7 7 7 8 8 8 9 10 10 11 12 12 13 13 13 13 14 13 12 11 12 13 14 14 14 14 13 14 17 18 19 19 19 20 20 19 16 11 10 10 10 10 9 9 9 8 8 8 8 7 7 6 6 6
13 12 11 10 10 10 10 9 9 9 8 7 6 5 5 5 5 6 6 7 8 9 10 11 12 13 14 14 13 12 12 12 11 11 11 11 12 13 14 13 13 12 12 16 17 18 19 19 20 20 18 13 10 9 9 9 9 9 8 8 7 7 6 5 4 4 3 3 3
12 12 12 12 11 11 10 8 8 8 8 7 5 4 4 4 4 4 5 5 6 7 9 10 12 13 13 12 11 11 10 10 10 11 11 12 12 13 13 13 12 10 10 14 16 18 19 19 20 19 17 12 11 10 9 8 8 8 7 6 5 4 3 2 2 2 2 1 2
13 12 12 12 11 10 8 6 5 5 4 4 3 2 2 2 2 2 3 3 4 6 8 10 12 12 10 9 8 8 8 9 10 11 12 12 12 12 12 12 10 8 9 12 15 17 18 19 20 20 17 12 11 9 8 8 7 7 6 5 4 3 4 4 4 4 4 4 5
13 12 11 10 9 8 7 6 6 6 6 5 6 6 6 5 5 4 4 4 6 7 9 10 11 10 8 7 7 7 7 7 8 10 11 11 11 10 10 10 8 7 7 10 14 16 18 19 19 19 17 11 10 8 7 7 7 6 5 5 4 4 4 4 4 4 5 6 8
13 12 12 11 10 10 10 10 10 10 9 9 10 9 8 7 6 6 7 7 9 9 10 10 9 8 7 6 7 7 8 7 7 7 7 8 8 7 7 6 5 5 5 7 11 13 15 17 17 18 16 10 9 8 7 7 7 7 6 5 5 5 5 4 5 5 6 6 7
Wind_Direction
199 196 194 193 195 198 201 204 201 198 196 196 198 198 198 198 201 202 202 202 205 207 208 208 207 205 202 197 195 198 202 205 204 203 202 202 204 203 200 196 192 189 188 189 185 183 182 182 179 178 181 187 184 180 176 168 165 165 165 162 161 161 162 165 170 173 175 178 178
202 199 196 193 195 199 202 205 204 202 200 200 200 200 200 199 202 203 203 204 206 207 208 209 207 205 202 199 197 198 200 204 204 204 203 204 205 203 200 196 193 191 190 190 187 187 186 184 180 180 182 186 181 179 177 172 165 164 164 165 163 163 164 169 174 176 177 179 178
205 201 198 196 197 199 202 205 204 203 202 203 202 202 202 202 204 205 205 206 206 207 207 209 208 205 202 200 199 200 201 203 204 204 205 206 205 204 201 197 195 194 194 193 192 191 190 186 184 183 183 185 182 181 178 172 166 165 167 170 166 164 167 174 175 175 175 177 176
207 204 202 199 199 200 202 204 204 203 202 203 203 204 204 205 206 207 207 206 206 206 208 209 208 205 203 201 201 202 203 204 204 205 206 208 206 204 202 198 197 197 198 197 196 194 192 188 187 186 185 184 182 181 179 172 171 172 173 173 168 167 171 174 171 172 174 175 176
208 207 205 203 201 201 203 205 204 203 202 202 203 205 206 207 208 208 208 207 207 208 207 207 207 205 203 201 201 202 204 205 204 206 207 209 208 205 202 199 199 199 199 198 197 195 193 190 190 188 185 183 184 184 179 167 173 177 177 172 171 172 173 170 168 169 170 170 175
210 209 208 206 203 203 204 206 204 203 202 201 203 205 207 207 207 207 208 209 209 207 205 203 206 205 203 200 201 202 204 205 205 206 208 209 208 206 203 202 202 201 199 198 197 194 192 191 192 187 179 175 184 182 173 165 174 178 178 174 179 178 174 170 167 166 165 164 170
211 210 210 208 204 203 204 206 205 203 202 202 204 206 207 208 207 207 208 209 209 206 203 202 205 206 204 200 201 202 204 204 205 206 207 208 207 205 203 202 202 200 198 195 194 192 191 191 191 182 171 167 182 182 177 173 179 181 181 181 183 181 176 173 168 165 165 166 169
212 212 211 209 205 204 204 205 204 203 203 205 206 207 208 208 207 207 207 208 208 206 203 203 206 207 206 202 202 203 203 204 205 206 206 206 206 204 203 200 200 198 195 190 188 188 190 190 189 179 170 171 185 187 185 183 185 185 186 185 184 184 182 176 170 169 170 170 171
214 213 212 211 207 205 204 204 204 203 204 207 208 208 208 208 208 207 207 208 209 207 204 204 206 206 206 205 204 204 204 205 205 205 205 205 205 204 201 197 196 194 190 183 183 185 189 192 193 188 182 182 189 190 189 189 191 191 191 189 186 185 184 177 172 172 172 171 172
214 213 212 212 209 206 204 204 205 206 207 209 210 209 208 208 209 209 208 209 208 207 207 206 204 204 205 207 207 205 205 205 206 206 205 205 205 204 202 197 191 188 185 180 182 187 193 200 204 201 194 185 187 186 187 193 198 199 198 196 188 184 183 179 173 173 174 174 175
214 213 212 212 210 207 204 205 207 208 209 211 211 211 210 210 211 211 211 209 209 210 210 208 203 203 204 208 208 207 205 205 206 206 206 206 205 205 205 203 196 193 190 188 188 194 202 210 214 210 199 182 183 181 184 194 206 209 209 206 191 184 182 183 178 177 177 178 178
215 214 214 213 211 207 205 206 209 211 212 213 213 212 212 212 213 213 212 210 211 212 212 209 204 203 205 208 208 207 206 206 207 208 207 205 204 205 209 213 207 204 203 203 201 205 213 219 220 213 199 181 184 183 184 192 210 217 217 210 195 187 186 186 184 183 183 181 181
215 215 215 214 212 209 207 207 211 213 214 215 215 215 214 215 214 213 212 213 214 214 214 210 206 206 206 208 208 208 207 206 207 208 207 205 202 205 211 218 215 213 212 212 210 212 216 218 216 209 198 187 190 188 186 189 206 215 217 210 200 195 192 191 189 187 185 182 184
213 214 214 214 212 209 208 208 211 214 216 216 217 216 216 216 214 213 213 215 217 217 215 211 209 209 209 209 208 207 206 206 206 208 209 209 204 205 211 218 219 218 218 217 214 214 215 214 210 204 198 192 194 192 190 189 200 207 211 207 204 201 199 195 192 188 186 186 189
212 212 213 213 211 210 208 208 211 214 216 217 217 216 216 217 214 213 213 217 218 218 216 213 212 212 211 209 208 206 204 203 205 210 214 217 212 210 211 215 217 219 219 218 214 212 211 209 204 201 198 195 196 196 194 190 194 200 206 208 206 204 202 198 193 189 188 188 191
210 211 211 210 210 210 209 208 210 212 215 216 216 215 215 216 214 212 212 216 218 218 217 215 214 213 210 207 204 202 201 204 209 214 218 220 217 214 212 212 215 216 216 215 212 209 205 202 200 199 198 197 197 196 194 190 190 195 202 206 206 205 202 198 192 190 190 191 194
209 210 211 210 211 210 210 209 211 212 214 215 214 213 213 214 213 212 211 212 215 216 216 216 214 210 205 198 194 196 204 213 215 215 215 216 216 214 212 211 212 213 213 212 209 205 201 198 197 197 197 197 196 195 193 189 188 193 199 203 204 204 202 197 191 189 190 194 199
207 210 212 212 212 212 212 213 214 215 215 214 213 212 212 213 213 213 212 211 212 213 214 215 212 205 193 181 184 197 210 216 215 214 213 212 212 212 211 211 212 213 213 211 207 203 199 196 196 196 196 195 194 192 190 187 187 190 195 200 203 203 201 196 191 190 192 197 202
207 209 210 211 211 212 214 216 218 218 217 215 213 212 213 214 215 215 214 212 211 211 212 212 208 200 187 179 190 203 211 213 213 212 211 210 210 211 212 213 213 213 212 209 206 201 197 194 195 194 194 193 192 190 187 185 184 186 190 197 202 203 202 197 194 194 196 199 203
210 210 210 209 210 211 214 217 219 219 218 215 213 214 215 216 218 218 218 215 211 209 208 207 202 196 190 190 198 204 208 209 209 209 209 208 210 212 213 211 210 210 210 209 204 199 194 192 192 191 191 190 190 188 186 183 182 182 186 193 199 203 203 201 198 198 198 200 202
210 211 211 211 211 212 214 217 219 218 215 210 210 213 217 220 220 220 219 217 210 205 201 198 189 184 184 190 197 202 204 201 200 202 203 202 207 210 210 207 207 209 210 207 201 195 190 188 187 187 188 190 191 190 187 183 181 182 185 191 197 201 203 202 200 199 200 200 201
209 210 211 211 211 213 214 217 216 211 204 198 204 218 229 232 226 221 217 214 206 199 194 189 180 178 182 189 194 196 196 192 193 194 194 192 198 204 206 205 208 211 210 206 200 192 186 182 183 186 190 193 195 193 188 183 182 184 187 192 196 199 201 201 200 200 200 200 200
208 208 208 209 209 210 212 213 207 198 191 192 203 215 223 228 224 219 212 207 201 194 188 182 178 179 183 187 189 189 187 184 186 184 177 163 166 189 218 228 226 222 216 208 199 190 183 179 185 190 195 197 197 195 190 185 185 187 190 194 198 201 202 202 201 201 201 201 200
206 206 206 205 205 206 206 204 195 189 188 196 209 216 220 222 220 213 205 201 196 190 183 179 178 178 180 182 182 180 178 177 176 168 152 129 132 163 211 231 234 231 224 213 200 190 185 183 190 196 200 200 199 197 194 190 191 193 195 199 203 206 207 206 204 204 203 202 200
203 202 202 202 203 203 201 196 191 188 191 200 214 222 225 224 219 211 202 198 193 186 179 175 174 172 170 169 170 170 170 167 162 151 138 130 144 171 200 218 227 229 227 220 203 194 191 191 196 200 202 202 202 201 200 197 197 197 199 201 205 207 209 209 208 206 205 202 199
199 199 199 201 201 200 197 193 192 191 193 200 214 223 228 226 220 211 202 196 189 181 174 172 168 164 159 159 161 162 160 156 146 139 135 139 163 188 203 212 217 222 223 220 207 200 197 198 200 201 202 202 202 203 203 202 201 200 200 201 203 205 206 208 208 207 205 202 199
195 196 198 200 201 199 197 194 194 194 195 200 210 219 223 223 218 209 200 194 185 177 170 168 163 158 154 154 154 153 149 142 136 137 144 163 187 201 208 211 213 215 215 212 206 203 202 202 202 201 200 201 202 202 202 202 200 200 200 201 202 204 205 207 208 206 204 201 199
193 194 196 198 200 199 197 194 195 197 199 201 207 212 216 215 209 202 194 187 179 173 168 166 160 155 152 151 150 147 143 139 141 151 169 187 200 206 210 212 213 213 213 210 207 206 205 204 201 198 196 197 200 201 199 198 198 198 199 201 203 205 207 209 208 206 203 201 200
190 191 193 195 198 198 197 195 197 200 202 203 205 207 207 204 198 192 185 179 174 172 170 167 159 155 153 152 149 146 145 146 156 171 188 201 209 211 212 213 214 215 214 211 208 207 205 203 199 196 194 194 197 198 197 196 196 197 199 202 204 206 208 209 208 206 203 201 201
186 187 189 192 194 195 195 196 198 200 202 202 202 201 199 195 190 185 180 176 174 173 170 163 159 159 159 156 153 152 154 161 174 187 199 209 214 216 216 216 217 217 215 210 206 203 201 199 196 194 193 193 194 195 197 196 196 197 200 203 205 206 207 209 207 206 204 201 201
182 183 185 188 190 192 194 196 198 199 200 200 198 197 194 192 188 183 179 174 172 167 161 158 161 163 163 161 160 162 166 173 186 198 207 214 216 218 219 220 221 221 217 208 203 199 197 195 194 194 193 192 192 194 196 197 197 199 201 204 205 205 206 207 206 204 203 201 199
180 181 182 185 188 191 194 196 198 199 199 198 197 195 193 191 186 181 174 167 161 156 156 160 164 166 167 167 169 172 175 182 195 204 211 214 215 216 218 220 222 223 218 206 199 196 195 194 193 193 192 190 191 192 194 196 198 200 203 204 204 204 203 204 204 203 202 200 199
179 180 181 184 186 187 188 191 195 196 196 196 195 194 191 187 182 174 168 163 157 157 160 165 168 169 171 174 177 181 185 193 203 209 211 211 212 214 216 219 221 221 215 204 198 196 195 193 192 191 190 188 188 190 193 196 199 201 203 204 204 202 201 202 202 202 201 199 198
178 178 180 182 180 175 166 158 172 181 184 187 188 186 183 179 175 170 167 164 159 160 164 168 170 172 174 179 184 190 196 204 210 212 211 210 210 212 215 217 219 216 208 199 196 195 194 192 190 189 187 186 187 189 192 195 198 201 202 203 203 201 200 200 201 200 199 197 196
173 173 173 173 160 140 116 98 109 128 147 161 167 169 169 168 168 166 163 158 154 158 164 169 171 173 177 184 194 202 207 212 213 212 211 209 210 212 215 217 218 211 201 193 194 193 192 190 188 186 185 185 188 190 191 193 198 199 200 201 201 200 199 199 199 198 196 193 193
166 163 159 151 132 116 104 97 96 98 105 116 127 138 147 154 156 155 151 147 149 157 165 172 176 180 185 191 201 208 213 215 214 212 209 208 210 213 215 216 216 208 195 188 190 190 189 188 186 184 183 183 188 190 191 193 197 198 198 197 198 197 196 195 196 195 193 190 190
156 152 146 136 126 119 114 108 102 99 96 96 99 107 119 131 137 140 141 142 151 161 171 179 185 190 194 198 205 211 215 215 212 209 207 208 210 212 214 214 213 204 192 184 186 186 186 186 184 182 181 183 188 190 190 192 195 195 194 194 193 191 187 184 182 181 181 185 189
144 141 138 133 131 129 126 122 116 112 108 104 100 99 105 116 128 137 144 150 166 179 187 194 198 201 203 205 210 214 215 211 206 204 204 206 209 209 210 212 210 201 188 183 183 184 184 185 183 181 180 184 187 188 187 189 191 190 188 185 178 163 139 113 105 99 102 121 155
134 133 132 132 134 136 139 143 145 146 144 138 137 140 147 153 166 172 179 192 205 209 209 209 209 210 211 212 216 216 212 205 201 200 201 204 206 205 205 207 206 197 185 182 183 184 184 185 183 181 181 183 185 185 184 183 183 180 174 164 146 115 86 73 75 73 74 80 103
133 135 138 143 149 156 167 183 200 211 216 213 208 205 204 205 212 220 227 234 234 231 225 219 216 215 213 211 212 209 205 200 198 198 198 200 200 199 199 201 199 189 180 182 185 186 185 185 183 182 181 182 182 181 179 179 175 169 160 146 128 106 87 76 79 81 83 84 93
144 149 156 166 174 181 187 195 205 212 216 216 211 206 202 202 211 222 231 236 234 230 225 219 216 210 202 196 199 198 195 193 194 194 193 192 191 190 190 191 183 172 170 182 188 188 187 185 183 182 182 181 179 178 177 176 173 167 158 144 128 116 107 96 90 90 92 95 96